Time,TemperatureF,DewpointF,PressureIn,WindDirection,WindDirectionDegrees,WindSpeedMPH,WindSpeedGustMPH,Humidity,HourlyPrecipIn,Conditions,Clouds,dailyrainin,SoftwareType,DateUTC
2013-01-14 00:04:00,-8.4,-13.1,30.62,SE,138,1.0,2.0,79,0.00,,---,0.00,VWS V14.01,2013-01-14 07:04:00,
2013-01-14 00:09:00,-8.2,-12.9,30.62,SE,138,0.0,0.0,79,0.00,,---,0.00,VWS V14.01,2013-01-14 07:09:00,
2013-01-14 00:14:00,-8.0,-12.8,30.62,SE,138,4.0,4.0,79,0.00,,---,0.00,VWS V14.01,2013-01-14 07:14:00,
2013-01-14 00:19:00,-7.9,-12.7,30.62,SE,138,2.0,2.0,79,0.00,,---,0.00,VWS V14.01,2013-01-14 07:19:00,
2013-01-14 00:24:00,-7.9,-12.7,30.62,South,172,4.0,5.0,79,0.00,,---,0.00,VWS V14.01,2013-01-14 07:24:00,
2013-01-14 00:29:00,-7.9,-12.7,30.62,South,184,4.0,5.0,79,0.00,,---,0.00,VWS V14.01,2013-01-14 07:29:00,
2013-01-14 00:34:00,-7.7,-12.5,30.62,South,184,3.0,4.0,79,0.00,,---,0.00,VWS V14.01,2013-01-14 07:34:00,
2013-01-14 00:39:00,-7.5,-12.3,30.61,South,184,2.0,2.0,79,0.00,,---,0.00,VWS V14.01,2013-01-14 07:39:00,
2013-01-14 00:44:00,-7.3,-12.1,30.62,South,184,1.0,1.0,79,0.00,,---,0.00,VWS V14.01,2013-01-14 07:44:00,
2013-01-14 00:49:00,-7.3,-12.1,30.62,South,184,0.0,0.0,79,0.00,,---,0.00,VWS V14.01,2013-01-14 07:49:00,
2013-01-14 00:54:00,-7.2,-12.0,30.61,South,184,0.0,0.0,79,0.00,,---,0.00,VWS V14.01,2013-01-14 07:54:00,
2013-01-14 00:59:00,-7.0,-11.5,30.61,South,184,0.0,0.0,80,0.00,,---,0.00,VWS V14.01,2013-01-14 07:59:00,
2013-01-14 01:04:00,-6.9,-11.7,30.62,South,184,0.0,0.0,79,0.00,,---,0.00,VWS V14.01,2013-01-14 08:04:00,
2013-01-14 01:09:00,-6.9,-11.7,30.61,South,184,0.0,0.0,79,0.00,,---,0.00,VWS V14.01,2013-01-14 08:09:00,
2013-01-14 01:14:00,-6.9,-11.7,30.62,South,184,0.0,0.0,79,0.00,,---,0.00,VWS V14.01,2013-01-14 08:14:00,
2013-01-14 01:19:00,-6.9,-11.7,30.62,South,184,0.0,0.0,79,0.00,,---,0.00,VWS V14.01,2013-01-14 08:19:00,
2013-01-14 01:24:00,-6.9,-11.7,30.62,South,184,0.0,0.0,79,0.00,,---,0.00,VWS V14.01,2013-01-14 08:24:00,
2013-01-14 01:29:00,-6.7,-11.5,30.62,South,184,1.0,1.0,79,0.00,,---,0.00,VWS V14.01,2013-01-14 08:29:00,
2013-01-14 01:34:00,-6.5,-11.0,30.62,South,184,0.0,0.0,80,0.00,,---,0.00,VWS V14.01,2013-01-14 08:34:00,
2013-01-14 01:39:00,-6.3,-11.1,30.62,South,184,1.0,1.0,79,0.00,,---,0.00,VWS V14.01,2013-01-14 08:39:00,
2013-01-14 01:45:00,-6.2,-11.0,30.62,South,184,1.0,2.0,79,0.00,,---,0.00,VWS V14.01,2013-01-14 08:45:00,
2013-01-14 01:50:00,-6.2,-11.0,30.62,South,184,1.0,2.0,79,0.00,,---,0.00,VWS V14.01,2013-01-14 08:50:00,
2013-01-14 01:55:00,-6.3,-11.1,30.62,South,184,1.0,2.0,79,0.00,,---,0.00,VWS V14.01,2013-01-14 08:55:00,
2013-01-14 02:00:00,-6.3,-11.1,30.62,South,184,0.0,1.0,79,0.00,,---,0.00,VWS V14.01,2013-01-14 09:00:00,
2013-01-14 02:05:00,-6.3,-11.1,30.62,South,184,0.0,0.0,79,0.00,,---,0.00,VWS V14.01,2013-01-14 09:05:00,
2013-01-14 02:10:00,-6.0,-10.6,30.62,South,184,0.0,1.0,80,0.00,,---,0.00,VWS V14.01,2013-01-14 09:10:00,
2013-01-14 02:15:00,-5.9,-10.5,30.62,South,184,0.0,0.0,80,0.00,,---,0.00,VWS V14.01,2013-01-14 09:15:00,
2013-01-14 02:20:00,-5.8,-10.4,30.62,South,184,1.0,2.0,80,0.00,,---,0.00,VWS V14.01,2013-01-14 09:20:00,
2013-01-14 02:25:00,-5.4,-10.0,30.63,South,184,0.0,1.0,80,0.00,,---,0.00,VWS V14.01,2013-01-14 09:25:00,
2013-01-14 02:30:00,-5.4,-10.2,30.63,South,184,1.0,4.0,79,0.00,,---,0.00,VWS V14.01,2013-01-14 09:30:00,
2013-01-14 02:35:00,-5.3,-9.9,30.63,South,184,5.0,5.0,80,0.00,,---,0.00,VWS V14.01,2013-01-14 09:35:00,
2013-01-14 02:40:00,-4.8,-9.6,30.63,South,191,4.0,4.0,79,0.00,,---,0.00,VWS V14.01,2013-01-14 09:40:00,
2013-01-14 02:45:00,-4.7,-9.5,30.63,South,191,0.0,2.0,79,0.00,,---,0.00,VWS V14.01,2013-01-14 09:45:00,
2013-01-14 02:50:00,-4.8,-9.6,30.63,South,191,1.0,1.0,79,0.00,,---,0.00,VWS V14.01,2013-01-14 09:50:00,
2013-01-14 02:56:00,-5.1,-10.2,30.63,South,191,0.0,0.0,78,0.00,,---,0.00,VWS V14.01,2013-01-14 09:56:00,
2013-01-14 03:01:00,-5.4,-10.5,30.63,South,191,2.0,2.0,78,0.00,,---,0.00,VWS V14.01,2013-01-14 10:01:00,
2013-01-14 03:06:00,-5.9,-11.2,30.63,South,191,1.0,1.0,77,0.00,,---,0.00,VWS V14.01,2013-01-14 10:06:00,
2013-01-14 03:11:00,-6.1,-11.2,30.63,South,191,1.0,1.0,78,0.00,,---,0.00,VWS V14.01,2013-01-14 10:11:00,
2013-01-14 03:16:00,-6.4,-11.7,30.63,South,191,3.0,3.0,77,0.00,,---,0.00,VWS V14.01,2013-01-14 10:16:00,
2013-01-14 03:21:00,-6.6,-11.6,30.64,SSW,192,2.0,5.0,78,0.00,,---,0.00,VWS V14.01,2013-01-14 10:21:00,
2013-01-14 03:26:00,-6.8,-11.8,30.64,SSW,192,0.0,0.0,78,0.00,,---,0.00,VWS V14.01,2013-01-14 10:26:00,
2013-01-14 03:31:00,-6.7,-11.8,30.64,SSW,192,0.0,0.0,78,0.00,,---,0.00,VWS V14.01,2013-01-14 10:31:00,
2013-01-14 03:36:00,-6.7,-11.8,30.64,SSW,192,0.0,1.0,78,0.00,,---,0.00,VWS V14.01,2013-01-14 10:36:00,
2013-01-14 03:41:00,-6.6,-11.4,30.64,SSW,192,0.0,0.0,79,0.00,,---,0.00,VWS V14.01,2013-01-14 10:41:00,
2013-01-14 03:46:00,-6.4,-11.2,30.64,SSW,192,2.0,2.0,79,0.00,,---,0.00,VWS V14.01,2013-01-14 10:46:00,
2013-01-14 03:51:00,-6.1,-10.9,30.64,SSW,192,1.0,2.0,79,0.00,,---,0.00,VWS V14.01,2013-01-14 10:51:00,
2013-01-14 03:56:00,-5.8,-10.6,30.64,SSW,192,0.0,0.0,79,0.00,,---,0.00,VWS V14.01,2013-01-14 10:56:00,
2013-01-14 04:01:00,-5.7,-10.5,30.64,SSW,192,1.0,1.0,79,0.00,,---,0.00,VWS V14.01,2013-01-14 11:01:00,
2013-01-14 04:06:00,-5.7,-10.5,30.64,SSW,192,0.0,0.0,79,0.00,,---,0.00,VWS V14.01,2013-01-14 11:06:00,
2013-01-14 04:11:00,-5.6,-10.4,30.64,SSW,192,1.0,2.0,79,0.00,,---,0.00,VWS V14.01,2013-01-14 11:11:00,
2013-01-14 04:16:00,-5.5,-10.6,30.64,SSW,192,0.0,1.0,78,0.00,,---,0.00,VWS V14.01,2013-01-14 11:16:00,
2013-01-14 04:21:00,-5.5,-10.6,30.64,SSW,192,0.0,0.0,78,0.00,,---,0.00,VWS V14.01,2013-01-14 11:21:00,
2013-01-14 04:26:00,-5.7,-10.8,30.64,SSW,192,0.0,1.0,78,0.00,,---,0.00,VWS V14.01,2013-01-14 11:26:00,
2013-01-14 04:31:00,-5.8,-10.9,30.64,SSW,192,0.0,0.0,78,0.00,,---,0.00,VWS V14.01,2013-01-14 11:31:00,
2013-01-14 04:36:00,-5.8,-10.9,30.64,SSW,192,0.0,0.0,78,0.00,,---,0.00,VWS V14.01,2013-01-14 11:36:00,
2013-01-14 04:41:00,-5.8,-10.9,30.64,SSW,192,0.0,0.0,78,0.00,,---,0.00,VWS V14.01,2013-01-14 11:41:00,
2013-01-14 04:46:00,-5.8,-10.9,30.64,SSW,192,0.0,0.0,78,0.00,,---,0.00,VWS V14.01,2013-01-14 11:46:00,
2013-01-14 04:51:00,-5.8,-10.9,30.64,SSW,192,0.0,0.0,78,0.00,,---,0.00,VWS V14.01,2013-01-14 11:51:00,
2013-01-14 04:56:00,-5.7,-10.5,30.64,SSW,192,0.0,0.0,79,0.00,,---,0.00,VWS V14.01,2013-01-14 11:56:00,
2013-01-14 05:01:00,-5.5,-10.3,30.64,SSW,192,0.0,1.0,79,0.00,,---,0.00,VWS V14.01,2013-01-14 12:01:00,
2013-01-14 05:06:00,-5.3,-10.4,30.64,SSW,192,0.0,0.0,78,0.00,,---,0.00,VWS V14.01,2013-01-14 12:06:00,
2013-01-14 05:11:00,-5.3,-10.4,30.64,SSW,192,0.0,0.0,78,0.00,,---,0.00,VWS V14.01,2013-01-14 12:11:00,
2013-01-14 05:16:00,-5.5,-10.8,30.65,SSW,192,2.0,2.0,77,0.00,,---,0.00,VWS V14.01,2013-01-14 12:16:00,
2013-01-14 05:21:00,-5.5,-10.8,30.65,SSW,194,6.0,6.0,77,0.00,,---,0.00,VWS V14.01,2013-01-14 12:21:00,
2013-01-14 05:26:00,-5.4,-10.7,30.65,SSW,194,4.0,4.0,77,0.00,,---,0.00,VWS V14.01,2013-01-14 12:26:00,
2013-01-14 05:31:00,-5.4,-10.7,30.65,SSW,194,3.0,3.0,77,0.00,,---,0.00,VWS V14.01,2013-01-14 12:31:00,
2013-01-14 05:36:00,-5.2,-10.3,30.65,SSW,194,4.0,4.0,78,0.00,,---,0.00,VWS V14.01,2013-01-14 12:36:00,
2013-01-14 05:41:00,-4.9,-10.2,30.65,SSW,194,3.0,4.0,77,0.00,,---,0.00,VWS V14.01,2013-01-14 12:41:00,
2013-01-14 05:46:00,-4.9,-10.2,30.65,SSW,194,1.0,1.0,77,0.00,,---,0.00,VWS V14.01,2013-01-14 12:46:00,
2013-01-14 05:51:00,-4.7,-10.1,30.65,SSW,194,1.0,1.0,77,0.00,,---,0.00,VWS V14.01,2013-01-14 12:51:00,
2013-01-14 05:56:00,-4.6,-10.0,30.66,SSW,194,2.0,4.0,77,0.00,,---,0.00,VWS V14.01,2013-01-14 12:56:00,
2013-01-14 06:01:00,-4.9,-10.2,30.66,SSW,194,1.0,1.0,77,0.00,,---,0.00,VWS V14.01,2013-01-14 13:01:00,
2013-01-14 06:06:00,-5.0,-10.4,30.66,SSW,194,1.0,1.0,77,0.00,,---,0.00,VWS V14.01,2013-01-14 13:06:00,
2013-01-14 06:11:00,-4.8,-10.1,30.66,SSW,194,0.0,1.0,77,0.00,,---,0.00,VWS V14.01,2013-01-14 13:11:00,
2013-01-14 06:16:00,-4.7,-10.1,30.66,SSW,194,2.0,2.0,77,0.00,,---,0.00,VWS V14.01,2013-01-14 13:16:00,
2013-01-14 06:21:00,-4.8,-10.1,30.66,SSW,194,0.0,0.0,77,0.00,,---,0.00,VWS V14.01,2013-01-14 13:21:00,
2013-01-14 06:26:00,-4.8,-10.1,30.67,SSW,194,0.0,0.0,77,0.00,,---,0.00,VWS V14.01,2013-01-14 13:26:00,
2013-01-14 06:31:00,-4.6,-9.7,30.67,SSW,194,0.0,0.0,78,0.00,,---,0.00,VWS V14.01,2013-01-14 13:31:00,
2013-01-14 06:36:00,-4.4,-9.5,30.67,SSW,194,0.0,0.0,78,0.00,,---,0.00,VWS V14.01,2013-01-14 13:36:00,
2013-01-14 06:41:00,-4.2,-9.3,30.67,SSW,194,0.0,0.0,78,0.00,,---,0.00,VWS V14.01,2013-01-14 13:41:00,
2013-01-14 06:47:00,-4.0,-9.4,30.68,SSW,194,0.0,0.0,77,0.00,,---,0.00,VWS V14.01,2013-01-14 13:47:00,
2013-01-14 06:52:00,-4.3,-9.9,30.68,SSW,194,0.0,0.0,76,0.00,,---,0.00,VWS V14.01,2013-01-14 13:52:00,
2013-01-14 06:57:00,-4.5,-10.1,30.68,SSW,194,0.0,0.0,76,0.00,,---,0.00,VWS V14.01,2013-01-14 13:57:00,
2013-01-14 07:02:00,-4.6,-10.2,30.68,SSW,194,0.0,0.0,76,0.00,,---,0.00,VWS V14.01,2013-01-14 14:02:00,
2013-01-14 07:07:00,-4.8,-10.4,30.68,SSW,194,0.0,0.0,76,0.00,,---,0.00,VWS V14.01,2013-01-14 14:07:00,
2013-01-14 07:12:00,-4.8,-10.4,30.68,SSW,194,1.0,2.0,76,0.00,,---,0.00,VWS V14.01,2013-01-14 14:12:00,
2013-01-14 07:17:00,-4.7,-10.6,30.68,SSW,194,1.0,1.0,75,0.00,,---,0.00,VWS V14.01,2013-01-14 14:17:00,
2013-01-14 07:22:00,-4.6,-10.2,30.68,SSW,194,1.0,2.0,76,0.00,,---,0.00,VWS V14.01,2013-01-14 14:22:00,
2013-01-14 07:27:00,-4.3,-10.2,30.69,SSW,194,2.0,2.0,75,0.00,,---,0.00,VWS V14.01,2013-01-14 14:27:00,
2013-01-14 07:32:00,-4.0,-9.9,30.69,SSW,194,4.0,4.0,75,0.00,,---,0.00,VWS V14.01,2013-01-14 14:32:00,
2013-01-14 07:37:00,-4.0,-10.2,30.69,SSW,194,2.0,4.0,74,0.00,,---,0.00,VWS V14.01,2013-01-14 14:37:00,
2013-01-14 07:42:00,-4.2,-10.1,30.69,SSW,194,1.0,1.0,75,0.00,,---,0.00,VWS V14.01,2013-01-14 14:42:00,
2013-01-14 07:47:00,-4.2,-10.1,30.69,SSW,194,0.0,0.0,75,0.00,,---,0.00,VWS V14.01,2013-01-14 14:47:00,
2013-01-14 07:52:00,-4.2,-9.8,30.70,SSW,194,0.0,0.0,76,0.00,,---,0.00,VWS V14.01,2013-01-14 14:52:00,
2013-01-14 07:57:00,-4.1,-9.7,30.70,SSW,194,0.0,0.0,76,0.00,,---,0.00,VWS V14.01,2013-01-14 14:57:00,
2013-01-14 08:02:00,-4.0,-9.6,30.70,SSW,194,0.0,0.0,76,0.00,,---,0.00,VWS V14.01,2013-01-14 15:02:00,
2013-01-14 08:07:00,-3.7,-9.4,30.70,SSW,194,0.0,0.0,76,0.00,,---,0.00,VWS V14.01,2013-01-14 15:07:00,
2013-01-14 08:12:00,-3.6,-9.2,30.70,SSW,194,0.0,0.0,76,0.00,,---,0.00,VWS V14.01,2013-01-14 15:12:00,
2013-01-14 08:17:00,-3.3,-9.0,30.70,SSW,194,0.0,0.0,76,0.00,,---,0.00,VWS V14.01,2013-01-14 15:17:00,
2013-01-14 08:22:00,-2.8,-8.5,30.70,SSW,194,0.0,0.0,76,0.00,,---,0.00,VWS V14.01,2013-01-14 15:22:00,
2013-01-14 08:27:00,-2.2,-7.9,30.70,SSW,194,0.0,0.0,76,0.00,,---,0.00,VWS V14.01,2013-01-14 15:27:00,
2013-01-14 08:32:00,-1.6,-7.8,30.71,SSW,194,0.0,0.0,74,0.00,,---,0.00,VWS V14.01,2013-01-14 15:32:00,
2013-01-14 08:37:00,-1.2,-7.7,30.71,SSW,194,0.0,0.0,73,0.00,,---,0.00,VWS V14.01,2013-01-14 15:37:00,
2013-01-14 08:42:00,-0.9,-7.7,30.70,SSW,194,0.0,0.0,72,0.00,,---,0.00,VWS V14.01,2013-01-14 15:42:00,
2013-01-14 08:47:00,-0.8,-7.9,30.71,SSW,194,0.0,0.0,71,0.00,,---,0.00,VWS V14.01,2013-01-14 15:47:00,
2013-01-14 08:52:00,-0.5,-7.6,30.71,SSW,194,1.0,1.0,71,0.00,,---,0.00,VWS V14.01,2013-01-14 15:52:00,
2013-01-14 08:57:00,-0.2,-7.6,30.70,SSW,194,1.0,1.0,70,0.00,,---,0.00,VWS V14.01,2013-01-14 15:57:00,
2013-01-14 09:02:00,0.4,-6.8,30.70,SSW,194,1.0,1.0,71,0.00,,---,0.00,VWS V14.01,2013-01-14 16:02:00,
2013-01-14 09:07:00,1.0,-6.5,30.70,SSW,194,0.0,0.0,70,0.00,,---,0.00,VWS V14.01,2013-01-14 16:07:00,
2013-01-14 09:12:00,1.8,-5.4,30.70,SSW,194,0.0,0.0,71,0.00,,---,0.00,VWS V14.01,2013-01-14 16:12:00,
2013-01-14 09:17:00,2.8,-5.1,30.70,SSW,194,1.0,2.0,69,0.00,,---,0.00,VWS V14.01,2013-01-14 16:17:00,
2013-01-14 09:22:00,3.9,-3.7,30.70,SSW,194,0.0,1.0,70,0.00,,---,0.00,VWS V14.01,2013-01-14 16:22:00,
2013-01-14 09:27:00,4.4,-4.8,30.70,SSW,194,3.0,3.0,65,0.00,,---,0.00,VWS V14.01,2013-01-14 16:27:00,
2013-01-14 09:32:00,4.7,-4.8,30.69,SSW,194,5.0,5.0,64,0.00,,---,0.00,VWS V14.01,2013-01-14 16:32:00,
2013-01-14 09:37:00,4.9,-4.6,30.69,SSW,194,0.0,2.0,64,0.00,,---,0.00,VWS V14.01,2013-01-14 16:37:00,
2013-01-14 09:42:00,5.8,-3.7,30.69,SSW,194,0.0,2.0,64,0.00,,---,0.00,VWS V14.01,2013-01-14 16:42:00,
2013-01-14 09:47:00,6.5,-3.1,30.69,SSW,194,2.0,4.0,64,0.00,,---,0.00,VWS V14.01,2013-01-14 16:47:00,
2013-01-14 09:52:00,7.1,-3.2,30.69,SSW,194,0.0,1.0,62,0.00,,---,0.00,VWS V14.01,2013-01-14 16:52:00,
2013-01-14 09:58:00,7.2,-4.1,30.69,SSW,194,2.0,3.0,59,0.00,,---,0.00,VWS V14.01,2013-01-14 16:58:00,
2013-01-14 10:03:00,7.1,-3.8,30.69,SSW,194,4.0,4.0,60,0.00,,---,0.00,VWS V14.01,2013-01-14 17:03:00,
2013-01-14 10:08:00,7.3,-3.3,30.69,SSE,166,1.0,7.0,61,0.00,,---,0.00,VWS V14.01,2013-01-14 17:08:00,
2013-01-14 10:13:00,7.7,-3.6,30.68,SSE,160,0.0,4.0,59,0.00,,---,0.00,VWS V14.01,2013-01-14 17:13:00,
2013-01-14 10:18:00,7.8,-5.4,30.68,SSE,155,1.0,6.0,54,0.00,,---,0.00,VWS V14.01,2013-01-14 17:18:00,
2013-01-14 10:23:00,7.4,-6.5,30.68,SE,138,5.0,6.0,52,0.00,,---,0.00,VWS V14.01,2013-01-14 17:23:00,
2013-01-14 10:28:00,7.3,-7.0,30.68,SE,132,4.0,6.0,51,0.00,,---,0.00,VWS V14.01,2013-01-14 17:28:00,
2013-01-14 10:33:00,7.4,-5.4,30.67,SE,132,2.0,6.0,55,0.00,,---,0.00,VWS V14.01,2013-01-14 17:33:00,
2013-01-14 10:38:00,7.8,-5.0,30.67,SE,132,4.0,5.0,55,0.00,,---,0.00,VWS V14.01,2013-01-14 17:38:00,
2013-01-14 10:43:00,7.9,-5.7,30.67,SE,132,5.0,5.0,53,0.00,,---,0.00,VWS V14.01,2013-01-14 17:43:00,
2013-01-14 10:48:00,8.4,-4.8,30.67,ESE,121,7.0,9.0,54,0.00,,---,0.00,VWS V14.01,2013-01-14 17:48:00,
2013-01-14 10:53:00,8.6,-5.4,30.66,ESE,121,3.0,6.0,52,0.00,,---,0.00,VWS V14.01,2013-01-14 17:53:00,
2013-01-14 10:58:00,8.7,-5.7,30.66,ESE,121,6.0,6.0,51,0.00,,---,0.00,VWS V14.01,2013-01-14 17:58:00,
2013-01-14 11:03:00,9.0,-5.8,30.65,SE,133,3.0,5.0,50,0.00,,---,0.00,VWS V14.01,2013-01-14 18:03:00,
2013-01-14 11:08:00,9.3,-6.0,30.65,SE,133,6.0,7.0,49,0.00,,---,0.00,VWS V14.01,2013-01-14 18:08:00,
2013-01-14 11:13:00,9.9,-3.4,30.64,SE,130,4.0,8.0,54,0.00,,---,0.00,VWS V14.01,2013-01-14 18:13:00,
2013-01-14 11:18:00,9.5,-6.2,30.64,ESE,115,6.0,7.0,48,0.00,,---,0.00,VWS V14.01,2013-01-14 18:18:00,
2013-01-14 11:23:00,9.4,-3.1,30.63,SE,139,7.0,8.0,56,0.00,,---,0.00,VWS V14.01,2013-01-14 18:23:00,
2013-01-14 11:28:00,9.6,-3.7,30.63,ESE,121,6.0,8.0,54,0.00,,---,0.00,VWS V14.01,2013-01-14 18:28:00,
2013-01-14 11:33:00,9.6,-2.9,30.62,SSE,148,2.0,8.0,56,0.00,,---,0.00,VWS V14.01,2013-01-14 18:33:00,
2013-01-14 11:38:00,10.0,-5.8,30.62,SE,139,1.0,5.0,48,0.00,,---,0.00,VWS V14.01,2013-01-14 18:38:00,
2013-01-14 11:43:00,9.6,-5.7,30.62,ESE,123,8.0,8.0,49,0.00,,---,0.00,VWS V14.01,2013-01-14 18:43:00,
2013-01-14 11:48:00,9.4,-5.5,30.61,ESE,119,5.0,6.0,50,0.00,,---,0.00,VWS V14.01,2013-01-14 18:48:00,
2013-01-14 11:53:00,9.3,-4.4,30.61,ESE,119,2.0,6.0,53,0.00,,---,0.00,VWS V14.01,2013-01-14 18:53:00,
2013-01-14 11:58:00,9.2,-5.7,30.61,ESE,119,5.0,7.0,50,0.00,,---,0.00,VWS V14.01,2013-01-14 18:58:00,
2013-01-14 12:03:00,9.2,-2.9,30.60,ESE,119,6.0,7.0,57,0.00,,---,0.00,VWS V14.01,2013-01-14 19:03:00,
2013-01-14 12:08:00,9.2,-3.3,30.60,ESE,119,5.0,7.0,56,0.00,,---,0.00,VWS V14.01,2013-01-14 19:08:00,
2013-01-14 12:13:00,9.8,-3.5,30.59,ESE,119,5.0,6.0,54,0.00,,---,0.00,VWS V14.01,2013-01-14 19:13:00,
2013-01-14 12:18:00,9.7,-5.2,30.59,ESE,116,5.0,5.0,50,0.00,,---,0.00,VWS V14.01,2013-01-14 19:18:00,
2013-01-14 12:23:00,9.9,-3.4,30.59,SE,128,6.0,6.0,54,0.00,,---,0.00,VWS V14.01,2013-01-14 19:23:00,
2013-01-14 12:28:00,10.0,-4.5,30.59,SE,128,5.0,5.0,51,0.00,,---,0.00,VWS V14.01,2013-01-14 19:28:00,
2013-01-14 12:33:00,10.0,-2.5,30.58,SE,126,5.0,6.0,56,0.00,,---,0.00,VWS V14.01,2013-01-14 19:33:00,
2013-01-14 12:38:00,9.6,-2.2,30.58,ESE,112,6.0,9.0,58,0.00,,---,0.00,VWS V14.01,2013-01-14 19:38:00,
2013-01-14 12:43:00,9.4,-1.7,30.58,SE,131,7.0,9.0,60,0.00,,---,0.00,VWS V14.01,2013-01-14 19:43:00,
2013-01-14 12:48:00,9.3,-2.5,30.58,SSE,155,4.0,9.0,58,0.00,,---,0.00,VWS V14.01,2013-01-14 19:48:00,
2013-01-14 12:53:00,8.9,-2.1,30.58,SE,128,7.0,7.0,60,0.00,,---,0.00,VWS V14.01,2013-01-14 19:53:00,
2013-01-14 12:58:00,8.3,-3.1,30.58,SSE,150,7.0,9.0,59,0.00,,---,0.00,VWS V14.01,2013-01-14 19:58:00,
2013-01-14 13:03:00,8.3,-2.7,30.58,ESE,122,8.0,10.0,60,0.00,,---,0.00,VWS V14.01,2013-01-14 20:03:00,
2013-01-14 13:08:00,8.3,-2.0,30.58,SE,128,6.0,10.0,62,0.00,,---,0.00,VWS V14.01,2013-01-14 20:08:00,
2013-01-14 13:13:00,8.5,-0.5,30.57,SE,128,8.0,12.0,66,0.00,,---,0.00,VWS V14.01,2013-01-14 20:13:00,
2013-01-14 13:18:00,8.5,-0.8,30.57,ESE,113,13.0,13.0,65,0.00,,---,0.00,VWS V14.01,2013-01-14 20:18:00,
2013-01-14 13:24:00,8.6,-0.1,30.58,ESE,117,5.0,10.0,67,0.00,,---,0.00,VWS V14.01,2013-01-14 20:24:00,
2013-01-14 13:29:00,8.2,-1.1,30.58,ESE,122,8.0,8.0,65,0.00,,---,0.00,VWS V14.01,2013-01-14 20:29:00,
2013-01-14 13:34:00,7.9,-1.1,30.58,ESE,123,4.0,13.0,66,0.00,,---,0.00,VWS V14.01,2013-01-14 20:34:00,
2013-01-14 13:39:00,7.4,-1.6,30.58,ESE,122,6.0,9.0,66,0.00,,---,0.00,VWS V14.01,2013-01-14 20:39:00,
2013-01-14 13:44:00,7.0,-1.6,30.58,SE,136,6.0,12.0,67,0.00,,---,0.00,VWS V14.01,2013-01-14 20:44:00,
2013-01-14 13:48:00,6.7,-2.5,30.58,ESE,117,8.0,9.0,65,0.00,,---,0.00,VWS V14.01,2013-01-14 20:48:00,
2013-01-14 13:54:00,6.3,-3.3,30.59,ESE,123,4.0,9.0,64,0.00,,---,0.00,VWS V14.01,2013-01-14 20:54:00,
2013-01-14 13:59:00,5.8,-3.7,30.59,SE,137,6.0,8.0,64,0.00,,---,0.00,VWS V14.01,2013-01-14 20:59:00,
2013-01-14 14:04:00,5.7,-3.8,30.59,SE,138,5.0,6.0,64,0.00,,---,0.00,VWS V14.01,2013-01-14 21:04:00,
2013-01-14 14:09:00,5.6,-3.6,30.59,ESE,111,5.0,8.0,65,0.00,,---,0.00,VWS V14.01,2013-01-14 21:09:00,
2013-01-14 14:14:00,5.5,-3.7,30.60,SE,141,8.0,8.0,65,0.00,,---,0.00,VWS V14.01,2013-01-14 21:14:00,
2013-01-14 14:18:00,5.5,-4.0,30.60,ESE,123,4.0,8.0,64,0.00,,---,0.00,VWS V14.01,2013-01-14 21:18:00,
2013-01-14 14:23:00,5.4,-3.8,30.60,ESE,107,7.0,8.0,65,0.00,,---,0.00,VWS V14.01,2013-01-14 21:23:00,
2013-01-14 14:29:00,5.5,-4.0,30.61,ESE,116,4.0,8.0,64,0.00,,---,0.00,VWS V14.01,2013-01-14 21:29:00,
2013-01-14 14:34:00,5.6,-3.9,30.61,ESE,117,9.0,9.0,64,0.00,,---,0.00,VWS V14.01,2013-01-14 21:34:00,
2013-01-14 14:39:00,5.6,-4.3,30.61,SE,128,4.0,7.0,63,0.00,,---,0.00,VWS V14.01,2013-01-14 21:39:00,
2013-01-14 14:44:00,5.5,-4.7,30.62,SE,134,2.0,5.0,62,0.00,,---,0.00,VWS V14.01,2013-01-14 21:44:00,
2013-01-14 14:49:00,5.5,-4.7,30.62,SE,140,5.0,9.0,62,0.00,,---,0.00,VWS V14.01,2013-01-14 21:49:00,
2013-01-14 14:54:00,5.5,-5.0,30.62,SE,140,0.0,5.0,61,0.00,,---,0.00,VWS V14.01,2013-01-14 21:54:00,
2013-01-14 14:59:00,5.3,-5.2,30.62,SE,138,3.0,6.0,61,0.00,,---,0.00,VWS V14.01,2013-01-14 21:59:00,
2013-01-14 15:04:00,5.0,-4.8,30.62,SE,139,2.0,6.0,63,0.00,,---,0.00,VWS V14.01,2013-01-14 22:04:00,
2013-01-14 15:09:00,4.6,-5.2,30.62,SE,130,6.0,6.0,63,0.00,,---,0.00,VWS V14.01,2013-01-14 22:09:00,
2013-01-14 15:14:00,4.4,-5.7,30.63,SE,136,6.0,6.0,62,0.00,,---,0.00,VWS V14.01,2013-01-14 22:14:00,
2013-01-14 15:19:00,4.1,-6.0,30.63,SE,128,5.0,6.0,62,0.00,,---,0.00,VWS V14.01,2013-01-14 22:19:00,
2013-01-14 15:24:00,3.6,-5.5,30.63,SE,142,0.0,4.0,65,0.00,,---,0.00,VWS V14.01,2013-01-14 22:24:00,
2013-01-14 15:29:00,3.4,-5.4,30.64,SE,142,2.0,2.0,66,0.00,,---,0.00,VWS V14.01,2013-01-14 22:29:00,
2013-01-14 15:34:00,3.1,-5.1,30.64,SE,142,0.0,2.0,68,0.00,,---,0.00,VWS V14.01,2013-01-14 22:34:00,
2013-01-14 15:38:00,3.0,-5.2,30.64,SE,142,2.0,2.0,68,0.00,,---,0.00,VWS V14.01,2013-01-14 22:38:00,
2013-01-14 15:44:00,2.8,-5.3,30.64,SE,142,0.0,2.0,68,0.00,,---,0.00,VWS V14.01,2013-01-14 22:44:00,
2013-01-14 15:48:00,2.6,-5.2,30.64,SE,142,2.0,2.0,69,0.00,,---,0.00,VWS V14.01,2013-01-14 22:48:00,
2013-01-14 15:53:00,2.5,-4.7,30.65,SE,142,1.0,2.0,71,0.00,,---,0.00,VWS V14.01,2013-01-14 22:53:00,
2013-01-14 15:59:00,2.3,-4.6,30.65,SE,142,2.0,2.0,72,0.00,,---,0.00,VWS V14.01,2013-01-14 22:59:00,
2013-01-14 16:03:00,2.0,-4.7,30.65,SE,142,0.0,1.0,73,0.00,,---,0.00,VWS V14.01,2013-01-14 23:03:00,
2013-01-14 16:09:00,1.8,-4.8,30.66,SE,142,0.0,0.0,73,0.00,,---,0.00,VWS V14.01,2013-01-14 23:09:00,
2013-01-14 16:14:00,1.8,-4.8,30.66,SE,142,0.0,0.0,73,0.00,,---,0.00,VWS V14.01,2013-01-14 23:14:00,
2013-01-14 16:19:00,1.7,-4.7,30.66,SE,142,0.0,0.0,74,0.00,,---,0.00,VWS V14.01,2013-01-14 23:19:00,
2013-01-14 16:24:00,1.5,-4.8,30.66,SE,142,0.0,0.0,74,0.00,,---,0.00,VWS V14.01,2013-01-14 23:24:00,
2013-01-14 16:29:00,1.5,-4.8,30.67,SE,142,0.0,0.0,74,0.00,,---,0.00,VWS V14.01,2013-01-14 23:29:00,
2013-01-14 16:34:00,1.3,-5.0,30.67,South,174,4.0,4.0,74,0.00,,---,0.00,VWS V14.01,2013-01-14 23:34:00,
2013-01-14 16:39:00,1.2,-5.1,30.67,South,178,2.0,5.0,74,0.00,,---,0.00,VWS V14.01,2013-01-14 23:39:00,
2013-01-14 16:44:00,1.1,-5.8,30.67,West,269,6.0,7.0,72,0.00,,---,0.00,VWS V14.01,2013-01-14 23:44:00,
2013-01-14 16:49:00,1.0,-5.9,30.67,West,262,5.0,5.0,72,0.00,,---,0.00,VWS V14.01,2013-01-14 23:49:00,
2013-01-14 16:54:00,0.8,-6.1,30.67,WSW,252,9.0,9.0,72,0.00,,---,0.00,VWS V14.01,2013-01-14 23:54:00,
2013-01-14 16:59:00,0.7,-7.7,30.67,WSW,240,6.0,6.0,67,0.00,,---,0.00,VWS V14.01,2013-01-14 23:59:00,
2013-01-14 17:04:00,0.6,-8.1,30.67,WSW,251,0.0,1.0,66,0.00,,---,0.00,VWS V14.01,2013-01-15 00:04:00,
2013-01-14 17:09:00,0.5,-8.5,30.68,WSW,252,2.0,4.0,65,0.00,,---,0.00,VWS V14.01,2013-01-15 00:09:00,
2013-01-14 17:14:00,0.3,-8.7,30.68,WSW,253,3.0,5.0,65,0.00,,---,0.00,VWS V14.01,2013-01-15 00:14:00,
2013-01-14 17:19:00,0.1,-9.0,30.68,WSW,246,4.0,6.0,65,0.00,,---,0.00,VWS V14.01,2013-01-15 00:19:00,
2013-01-14 17:24:00,-0.2,-9.8,30.68,WSW,245,5.0,5.0,63,0.00,,---,0.00,VWS V14.01,2013-01-15 00:24:00,
2013-01-14 17:29:00,-0.4,-10.3,30.68,SW,224,8.0,11.0,62,0.00,,---,0.00,VWS V14.01,2013-01-15 00:29:00,
2013-01-14 17:34:00,-0.4,-10.3,30.68,SW,221,0.0,1.0,62,0.00,,---,0.00,VWS V14.01,2013-01-15 00:34:00,
2013-01-14 17:39:00,-0.5,-10.4,30.68,SW,221,2.0,3.0,62,0.00,,---,0.00,VWS V14.01,2013-01-15 00:39:00,
2013-01-14 17:44:00,-0.7,-10.6,30.69,SW,221,0.0,0.0,62,0.00,,---,0.00,VWS V14.01,2013-01-15 00:44:00,
2013-01-14 17:49:00,-0.9,-10.8,30.69,SW,222,1.0,4.0,62,0.00,,---,0.00,VWS V14.01,2013-01-15 00:49:00,
2013-01-14 17:54:00,-1.1,-11.0,30.68,SW,222,1.0,1.0,62,0.00,,---,0.00,VWS V14.01,2013-01-15 00:54:00,
2013-01-14 17:59:00,-1.3,-11.1,30.69,SW,224,4.0,5.0,62,0.00,,---,0.00,VWS V14.01,2013-01-15 00:59:00,
2013-01-14 18:04:00,-1.4,-11.2,30.69,WSW,242,1.0,6.0,62,0.00,,---,0.00,VWS V14.01,2013-01-15 01:04:00,
2013-01-14 18:09:00,-1.3,-11.1,30.69,West,261,4.0,5.0,62,0.00,,---,0.00,VWS V14.01,2013-01-15 01:09:00,
2013-01-14 18:14:00,-1.1,-11.3,30.69,WSW,255,2.0,7.0,61,0.00,,---,0.00,VWS V14.01,2013-01-15 01:14:00,
2013-01-14 18:20:00,-1.0,-11.2,30.69,WSW,257,3.0,5.0,61,0.00,,---,0.00,VWS V14.01,2013-01-15 01:20:00,
2013-01-14 18:24:00,-0.9,-11.4,30.69,SW,227,2.0,3.0,60,0.00,,---,0.00,VWS V14.01,2013-01-15 01:24:00,
2013-01-14 18:30:00,-0.9,-11.4,30.69,SW,215,1.0,2.0,60,0.00,,---,0.00,VWS V14.01,2013-01-15 01:30:00,
2013-01-14 18:35:00,-1.0,-11.5,30.69,SW,215,1.0,2.0,60,0.00,,---,0.00,VWS V14.01,2013-01-15 01:35:00,
2013-01-14 18:40:00,-1.3,-11.8,30.69,SW,215,4.0,4.0,60,0.00,,---,0.00,VWS V14.01,2013-01-15 01:40:00,
2013-01-14 18:45:00,-1.5,-11.3,30.69,SW,215,4.0,6.0,62,0.00,,---,0.00,VWS V14.01,2013-01-15 01:45:00,
2013-01-14 18:50:00,-1.7,-11.5,30.69,SW,215,2.0,2.0,62,0.00,,---,0.00,VWS V14.01,2013-01-15 01:50:00,
2013-01-14 18:55:00,-2.0,-11.8,30.69,SW,215,1.0,2.0,62,0.00,,---,0.00,VWS V14.01,2013-01-15 01:55:00,
2013-01-14 19:00:00,-2.1,-11.6,30.69,SW,215,0.0,0.0,63,0.00,,---,0.00,VWS V14.01,2013-01-15 02:00:00,
2013-01-14 19:05:00,-2.2,-11.7,30.69,SW,215,0.0,2.0,63,0.00,,---,0.00,VWS V14.01,2013-01-15 02:05:00,
2013-01-14 19:10:00,-2.3,-12.1,30.69,SW,217,6.0,7.0,62,0.00,,---,0.00,VWS V14.01,2013-01-15 02:10:00,
2013-01-14 19:15:00,-2.3,-12.1,30.68,SW,219,5.0,6.0,62,0.00,,---,0.00,VWS V14.01,2013-01-15 02:15:00,
2013-01-14 19:20:00,-2.5,-12.3,30.68,SW,229,5.0,7.0,62,0.00,,---,0.00,VWS V14.01,2013-01-15 02:20:00,
2013-01-14 19:25:00,-2.6,-12.4,30.68,SW,229,2.0,2.0,62,0.00,,---,0.00,VWS V14.01,2013-01-15 02:25:00,
2013-01-14 19:30:00,-2.6,-12.7,30.68,SW,229,2.0,4.0,61,0.00,,---,0.00,VWS V14.01,2013-01-15 02:30:00,
2013-01-14 19:35:00,-2.8,-12.9,30.68,SW,229,2.0,4.0,61,0.00,,---,0.00,VWS V14.01,2013-01-15 02:35:00,
2013-01-14 19:40:00,-3.0,-13.1,30.68,WSW,255,6.0,7.0,61,0.00,,---,0.00,VWS V14.01,2013-01-15 02:40:00,
2013-01-14 19:45:00,-3.1,-13.2,30.68,West,266,2.0,5.0,61,0.00,,---,0.00,VWS V14.01,2013-01-15 02:45:00,
2013-01-14 19:50:00,-3.3,-13.4,30.68,WNW,287,4.0,4.0,61,0.00,,---,0.00,VWS V14.01,2013-01-15 02:50:00,
2013-01-14 19:55:00,-3.6,-13.3,30.68,WNW,287,4.0,4.0,62,0.00,,---,0.00,VWS V14.01,2013-01-15 02:55:00,
2013-01-14 20:00:00,-3.9,-13.6,30.68,WNW,287,6.0,6.0,62,0.00,,---,0.00,VWS V14.01,2013-01-15 03:00:00,
2013-01-14 20:05:00,-4.0,-13.4,30.68,WNW,287,1.0,3.0,63,0.00,,---,0.00,VWS V14.01,2013-01-15 03:05:00,
2013-01-14 20:10:00,-3.7,-13.4,30.67,WNW,287,0.0,0.0,62,0.00,,---,0.00,VWS V14.01,2013-01-15 03:10:00,
2013-01-14 20:15:00,-3.7,-13.4,30.67,WNW,287,0.0,0.0,62,0.00,,---,0.00,VWS V14.01,2013-01-15 03:15:00,
2013-01-14 20:20:00,-3.8,-13.5,30.67,WNW,287,1.0,2.0,62,0.00,,---,0.00,VWS V14.01,2013-01-15 03:20:00,
2013-01-14 20:25:00,-3.5,-13.6,30.67,WNW,287,2.0,2.0,61,0.00,,---,0.00,VWS V14.01,2013-01-15 03:25:00,
2013-01-14 20:31:00,-3.4,-13.8,30.67,WNW,287,4.0,5.0,60,0.00,,---,0.00,VWS V14.01,2013-01-15 03:31:00,
2013-01-14 20:36:00,-3.3,-13.7,30.67,WNW,292,2.0,8.0,60,0.00,,---,0.00,VWS V14.01,2013-01-15 03:36:00,
2013-01-14 20:41:00,-3.1,-13.5,30.67,West,280,7.0,8.0,60,0.00,,---,0.00,VWS V14.01,2013-01-15 03:41:00,
2013-01-14 20:46:00,-2.7,-13.5,30.67,WNW,296,7.0,7.0,59,0.00,,---,0.00,VWS V14.01,2013-01-15 03:46:00,
2013-01-14 20:51:00,-2.5,-13.6,30.67,WNW,288,6.0,7.0,58,0.00,,---,0.00,VWS V14.01,2013-01-15 03:51:00,
2013-01-14 20:56:00,-2.3,-13.8,30.66,West,273,7.0,9.0,57,0.00,,---,0.00,VWS V14.01,2013-01-15 03:56:00,
2013-01-14 21:00:00,-2.1,-13.9,30.66,WNW,297,4.0,7.0,56,0.00,,---,0.00,VWS V14.01,2013-01-15 04:00:00,
2013-01-14 21:05:00,-1.9,-13.8,30.66,WNW,287,5.0,7.0,56,0.00,,---,0.00,VWS V14.01,2013-01-15 04:05:00,
2013-01-14 21:10:00,-1.9,-14.1,30.66,WSW,252,3.0,8.0,55,0.00,,---,0.00,VWS V14.01,2013-01-15 04:10:00,
2013-01-14 21:16:00,-1.9,-14.1,30.66,West,263,1.0,6.0,55,0.00,,---,0.00,VWS V14.01,2013-01-15 04:16:00,
2013-01-14 21:21:00,-1.8,-14.0,30.65,SW,230,5.0,6.0,55,0.00,,---,0.00,VWS V14.01,2013-01-15 04:21:00,
2013-01-14 21:26:00,-1.7,-14.3,30.65,SW,233,3.0,5.0,54,0.00,,---,0.00,VWS V14.01,2013-01-15 04:26:00,
2013-01-14 21:31:00,-1.7,-14.3,30.65,West,271,2.0,4.0,54,0.00,,---,0.00,VWS V14.01,2013-01-15 04:31:00,
2013-01-14 21:36:00,-1.8,-14.4,30.65,WSW,239,6.0,6.0,54,0.00,,---,0.00,VWS V14.01,2013-01-15 04:36:00,
2013-01-14 21:41:00,-1.9,-14.5,30.65,WSW,257,6.0,8.0,54,0.00,,---,0.00,VWS V14.01,2013-01-15 04:41:00,
2013-01-14 21:46:00,-1.5,-14.5,30.65,SW,225,8.0,9.0,53,0.00,,---,0.00,VWS V14.01,2013-01-15 04:46:00,
2013-01-14 21:51:00,-1.3,-14.6,30.64,West,267,1.0,1.0,52,0.00,,---,0.00,VWS V14.01,2013-01-15 04:51:00,
2013-01-14 21:56:00,-1.3,-14.6,30.64,SW,236,1.0,8.0,52,0.00,,---,0.00,VWS V14.01,2013-01-15 04:56:00,
2013-01-14 22:00:00,-1.2,-14.9,30.64,SW,226,7.0,8.0,51,0.00,,---,0.00,VWS V14.01,2013-01-15 05:00:00,
2013-01-14 22:01:00,-1.1,-14.9,30.64,SW,234,7.0,8.0,51,0.00,,---,0.00,VWS V14.01,2013-01-15 05:01:00,
2013-01-14 22:03:00,-1.0,-14.8,30.64,West,261,2.0,6.0,51,0.00,,---,0.00,VWS V14.01,2013-01-15 05:03:00,
2013-01-14 22:08:00,-1.0,-14.8,30.64,West,281,3.0,10.0,51,0.00,,---,0.00,VWS V14.01,2013-01-15 05:08:00,
2013-01-14 22:13:00,-0.9,-15.1,30.64,West,271,4.0,7.0,50,0.00,,---,0.00,VWS V14.01,2013-01-15 05:13:00,
2013-01-14 22:18:00,-0.8,-15.4,30.64,WSW,252,1.0,2.0,49,0.00,,---,0.00,VWS V14.01,2013-01-15 05:18:00,
2013-01-14 22:23:00,-0.9,-15.4,30.64,SW,229,0.0,1.0,49,0.00,,---,0.00,VWS V14.01,2013-01-15 05:23:00,
2013-01-14 22:28:00,-1.1,-15.2,30.64,WSW,242,6.0,6.0,50,0.00,,---,0.00,VWS V14.01,2013-01-15 05:28:00,
2013-01-14 22:33:00,-1.1,-15.6,30.65,WSW,244,4.0,6.0,49,0.00,,---,0.00,VWS V14.01,2013-01-15 05:33:00,
2013-01-14 22:38:00,-1.2,-15.7,30.65,WSW,244,2.0,4.0,49,0.00,,---,0.00,VWS V14.01,2013-01-15 05:38:00,
2013-01-14 22:44:00,-1.2,-15.7,30.65,WSW,244,1.0,2.0,49,0.00,,---,0.00,VWS V14.01,2013-01-15 05:44:00,
2013-01-14 22:49:00,-1.2,-16.1,30.65,WSW,241,3.0,6.0,48,0.00,,---,0.00,VWS V14.01,2013-01-15 05:49:00,
2013-01-14 22:53:00,-1.2,-16.1,30.65,SW,230,7.0,7.0,48,0.00,,---,0.00,VWS V14.01,2013-01-15 05:53:00,
2013-01-14 22:59:00,-1.2,-16.1,30.65,WSW,242,0.0,2.0,48,0.00,,---,0.00,VWS V14.01,2013-01-15 05:59:00,
2013-01-14 23:04:00,-1.1,-16.0,30.65,WSW,256,2.0,5.0,48,0.00,,---,0.00,VWS V14.01,2013-01-15 06:04:00,
2013-01-14 23:08:00,-1.1,-16.0,30.65,SSW,209,1.0,1.0,48,0.00,,---,0.00,VWS V14.01,2013-01-15 06:08:00,
2013-01-14 23:14:00,-1.0,-16.4,30.65,SW,235,5.0,5.0,47,0.00,,---,0.00,VWS V14.01,2013-01-15 06:14:00,
2013-01-14 23:19:00,-1.1,-16.5,30.65,SW,234,0.0,1.0,47,0.00,,---,0.00,VWS V14.01,2013-01-15 06:19:00,
2013-01-14 23:24:00,-1.1,-16.5,30.65,SW,220,5.0,5.0,47,0.00,,---,0.00,VWS V14.01,2013-01-15 06:24:00,
2013-01-14 23:29:00,-1.2,-16.5,30.65,WSW,244,0.0,0.0,47,0.00,,---,0.00,VWS V14.01,2013-01-15 06:29:00,
2013-01-14 23:34:00,-1.2,-16.5,30.65,SW,221,1.0,5.0,47,0.00,,---,0.00,VWS V14.01,2013-01-15 06:34:00,
2013-01-14 23:39:00,-1.0,-16.4,30.65,SSW,208,8.0,13.0,47,0.00,,---,0.00,VWS V14.01,2013-01-15 06:39:00,
2013-01-14 23:44:00,-0.9,-16.3,30.65,SW,218,0.0,5.0,47,0.00,,---,0.00,VWS V14.01,2013-01-15 06:44:00,
2013-01-14 23:49:00,-0.9,-16.3,30.65,SW,224,5.0,5.0,47,0.00,,---,0.00,VWS V14.01,2013-01-15 06:49:00,
2013-01-14 23:54:00,-0.9,-16.3,30.66,SSW,200,0.0,1.0,47,0.00,,---,0.00,VWS V14.01,2013-01-15 06:54:00,
2013-01-14 23:59:00,-1.1,-16.0,30.65,South,188,2.0,2.0,48,0.00,,---,0.00,VWS V14.01,2013-01-15 06:59:00,